Flag for France Weather past 2 weeks in Rennes, France

46 °F


Feels Like: 44 °F
Forecast: 41 / 55 °F
Wind: 6 mph from Northeast

Location: Rennes Airport

Current Time: Oct 13, 2015 at 9:42:23 AM

Latest Report: Oct 13, 2015 at 9:00 AM

Visibility: 10 mi

Pressure: 30.12 "Hg

Humidity: 93%

Dew point: 45 °F

Location of RennesLocation

Historic Weather in Rennes — Graph


Rennes temperature yesterday

Maximum temperature yesterday: 63 °F (at 4:00 PM)
Minimum temperature yesterday: 50 °F (at 5:00 AM)
Average temperature yesterday: 54 °F

Past Weeks' High & Low Weather Summary

High70 °F (Sep 28, 4:00 PM)100% (Oct 4, 1:00 AM)30.45 "Hg (Oct 4, 1:00 AM)
Low41 °F (Oct 10, 6:00 AM)37% (Sep 29, 2:00 PM)29.45 "Hg (Oct 6, 6:00 AM)
Average56 °F76%30.03 "Hg
* Reported Sep 28 8:00 AM — Oct 13 8:30 AM, Rennes, Weather by CustomWeather, © 2015

Note: Actual official high and low records may vary slightly from our data, if they occured in-between our weather recording intervals... More about our weather records


Rennes weather history for previous 24 hours

Time TempWeatherWind HumidityBarometerVisibility
8:30 AM
Tue, Oct 13
45 °FClear.2 mph93%30.12 "Hg4 mi
8:00 AM45 °FClear.3 mph93%30.12 "Hg4 mi
7:30 AM45 °FOvercast.3 mph93%30.09 "HgN/A
7:00 AM45 °FPartly cloudy.3 mph93%30.09 "HgN/A
6:30 AM45 °FPassing clouds.3 mph87%30.09 "HgN/A
6:00 AM45 °FClear.2 mph93%30.09 "Hg5 mi
5:30 AM45 °FClear.3 mph93%30.09 "Hg4 mi
5:00 AM43 °FClear.5 mph93%30.09 "Hg4 mi
4:30 AM45 °FClear.2 mph93%30.09 "Hg5 mi
4:00 AM46 °FClear.3 mph87%30.09 "Hg10 mi
3:30 AM46 °FClear.5 mph82%30.09 "Hg10 mi
3:00 AM48 °FPassing clouds.6 mph82%30.09 "HgN/A
2:30 AM50 °FPassing clouds.3 mph76%30.09 "HgN/A
2:00 AM52 °FPassing clouds.3 mph72%30.09 "HgN/A
1:30 AM52 °FOvercast.8 mph72%30.09 "HgN/A
1:00 AM52 °FPassing clouds.9 mph72%30.09 "HgN/A
12:30 AM50 °FClear.8 mph76%30.09 "Hg10 mi
12:00 AM50 °FClear.9 mph76%30.09 "Hg10 mi
11:30 PM
Mon, Oct 12
50 °FClear.9 mph76%30.09 "Hg10 mi
11:00 PM50 °FClear.8 mph76%30.09 "Hg10 mi
10:30 PM52 °FPassing clouds.9 mph72%30.09 "HgN/A
10:00 PM52 °FPassing clouds.7 mph77%30.09 "HgN/A
9:30 PM52 °FClear.10 mph77%30.09 "Hg10 mi
9:00 PM52 °FClear.9 mph77%30.09 "Hg10 mi
8:30 PM54 °FClear.10 mph77%30.07 "Hg10 mi
8:00 PM54 °FSunny.9 mph77%30.07 "Hg10 mi
7:30 PM55 °FPassing clouds.10 mph72%30.07 "HgN/A
7:00 PM57 °FPassing clouds.9 mph67%30.04 "HgN/A
6:30 PM57 °FPartly sunny.12 mph72%30.04 "HgN/A
6:00 PM59 °FPartly sunny.12 mph68%30.04 "HgN/A
5:30 PM59 °FPartly sunny.14 mph68%30.04 "HgN/A
5:00 PM61 °FOvercast.12 mph63%30.04 "HgN/A
4:30 PM61 °FPartly sunny.14 mph68%30.04 "HgN/A
4:00 PM63 °FPartly sunny.13 mph64%30.04 "HgN/A
3:30 PM61 °FMostly cloudy.14 mph68%30.04 "HgN/A
3:00 PM61 °FPartly sunny.13 mph68%30.04 "HgN/A
2:30 PM61 °FOvercast.12 mph63%30.04 "HgN/A
2:00 PM61 °FPartly sunny.13 mph68%30.04 "Hg6 mi
1:30 PM59 °FPassing clouds.10 mph72%30.04 "Hg4 mi
1:00 PM57 °FMostly cloudy.12 mph72%30.04 "Hg5 mi
12:30 PM59 °FPartly sunny.13 mph72%30.04 "Hg5 mi
12:00 PM59 °FPartly sunny.13 mph72%30.04 "Hg4 mi
11:30 AM55 °FPartly sunny.12 mph77%30.04 "Hg4 mi
11:00 AM55 °FClear.10 mph77%30.04 "Hg4 mi
10:30 AM54 °FFog.9 mph82%30.04 "Hg3 mi
10:00 AM52 °FFog.9 mph88%30.01 "Hg3 mi
9:30 AM52 °FFog.9 mph82%30.01 "Hg3 mi
9:00 AM52 °FFog.10 mph82%30.01 "Hg3 mi
Weather by CustomWeather, © 2015

See weather overviewHow to use our weather pages